DW4879 Weather Reports


time (UTC)temp
F
wind
direction
speed
knots
gust
knots
rain 1hr
in
rain 24hr
in
rain mn
in
humidity
%
barometer
mb
20260901083054 58 5 0.9 1.7 0.00 0.06 0.00 85 1025.0
20260901082602 58 5 0.9 1.7 0.00 0.06 0.00 85 1025.0
20260901082054 58 5 0.9 1.7 0.00 0.06 0.00 85 1025.0
20260901081550 58 348 0.9 1.7 0.00 0.06 0.00 85 1025.1
20260901081052 58 348 0.0 1.7 0.00 0.06 0.00 86 1025.1
20260901080543 58 130 0.0 1.7 0.00 0.06 0.00 86 1025.2
20260901080059 58 350 0.0 2.6 0.00 0.06 0.00 86 1025.1
20260901075600 58 350 0.0 2.6 0.00 0.06 0.00 86 1025.2
20260901075002 58 329 0.0 1.7 0.00 0.06 0.00 86 1025.3
20260901074614 58 329 0.9 1.7 0.00 0.06 0.00 86 1025.3
20260901074001 58 329 0.9 2.6 0.00 0.06 0.00 87 1025.2
20260901073558 58 329 0.9 2.6 0.00 0.06 0.00 86 1025.2
20260901073001 58 300 0.0 1.7 0.00 0.06 0.00 85 1025.3
20260901072559 58 300 0.0 1.7 0.00 0.06 0.00 85 1025.3
20260901072002 59 300 0.0 0.0 0.00 0.06 0.00 84 1025.3
20260901071510 59 300 0.0 0.0 0.00 0.06 0.00 84 1025.2
20260901071003 59 300 0.0 1.7 0.00 0.06 0.00 84 1025.2
20260901070508 59 300 0.0 1.7 0.00 0.06 0.00 84 1025.1
20260901070112 59 300 0.0 2.6 0.00 0.06 0.00 84 1025.1
20260901065554 59 51 0.9 2.6 0.00 0.06 0.00 83 1025.1
20260901065101 59 65 0.0 2.6 0.00 0.06 0.00 84 1024.9
20260901064554 59 67 0.9 3.5 0.00 0.06 0.00 83 1024.9
20260901064045 59 76 1.7 2.6 0.00 0.06 0.00 83 1024.9
20260901063552 59 73 0.0 0.9 0.00 0.06 0.00 83 1025.0
20260901063046 59 73 0.0 2.6 0.00 0.06 0.00 82 1025.1
20260901062551 59 73 0.0 3.5 0.00 0.06 0.00 82 1025.0
20260901062100 59 73 0.9 3.5 0.00 0.06 0.00 82 1025.0
20260901061503 59 65 0.9 2.6 0.00 0.06 0.00 81 1025.1
20260901061058 59 38 0.9 2.6 0.00 0.06 0.00 82 1025.0
20260901060605 59 38 0.9 2.6 0.00 0.06 0.00 82 1025.0
20260901060053 59 38 0.9 1.7 0.00 0.06 0.00 82 1025.0
20260901055600 60 38 0.9 1.7 0.00 0.06 0.06 83 1025.0
20260901055056 60 38 0.0 0.0 0.00 0.06 0.06 83 1025.1
20260901054606 60 38 0.0 1.7 0.00 0.06 0.06 82 1025.0
20260901054005 60 38 0.0 2.6 0.00 0.06 0.06 83 1024.9
20260901053559 60 38 0.0 3.5 0.00 0.06 0.06 83 1024.9
20260901053003 60 33 1.7 3.5 0.00 0.06 0.06 83 1024.8
20260901052559 60 21 2.6 3.5 0.00 0.06 0.06 84 1024.8
20260901052002 60 47 1.7 2.6 0.00 0.06 0.06 84 1024.8
20260901051614 60 98 0.9 1.7 0.00 0.06 0.06 84 1024.8
20260901051051 60 98 0.9 1.7 0.00 0.06 0.06 84 1024.8
20260901050558 60 98 0.0 0.9 0.00 0.06 0.06 85 1024.9
20260901050002 60 98 0.0 0.9 0.00 0.06 0.06 85 1025.0
20260901045511 61 98 0.0 1.7 0.00 0.06 0.06 85 1025.0
20260901045019 61 98 0.0 1.7 0.00 0.06 0.06 85 1025.0
20260901044527 61 98 0.0 1.7 0.00 0.06 0.06 84 1025.0
20260901044032 61 98 0.0 1.7 0.00 0.06 0.06 84 1025.0
20260901043539 61 98 0.0 1.7 0.00 0.06 0.06 84 1025.0
20260901043050 61 98 0.0 1.7 0.00 0.06 0.06 83 1024.8
20260901042557 61 98 0.9 1.7 0.00 0.06 0.06 84 1024.8
20260901042046 61 98 0.9 2.6 0.00 0.06 0.06 83 1025.0
20260901041608 61 98 0.9 1.7 0.00 0.06 0.06 84 1024.9
20260901041050 61 98 0.0 1.7 0.00 0.06 0.06 84 1024.9
20260901040537 61 98 0.0 0.9 0.00 0.06 0.06 84 1025.1
20260901040044 61 98 0.0 0.9 0.00 0.06 0.06 84 1025.0
20260901035555 61 98 0.0 1.7 0.00 0.06 0.06 84 1025.1
20260901035059 61 98 0.9 1.7 0.00 0.06 0.06 84 1025.1
20260901034553 61 98 0.9 2.6 0.00 0.06 0.06 84 1024.9
20260901034101 61 98 1.7 2.6 0.00 0.06 0.06 84 1024.7
20260901033553 61 127 0.0 1.7 0.00 0.06 0.06 84 1025.0
20260901033046 61 127 0.9 1.7 0.00 0.06 0.06 85 1024.8
20260901032557 61 127 0.0 0.9 0.00 0.06 0.06 84 1025.0
20260901032100 61 127 0.0 1.7 0.00 0.06 0.06 84 1025.1
20260901031504 61 127 0.0 1.7 0.00 0.06 0.06 84 1024.9
20260901031101 61 127 0.0 1.7 0.00 0.06 0.06 85 1024.9
20260901030505 61 127 0.9 1.7 0.00 0.06 0.06 85 1024.8
20260901030105 61 127 0.9 2.6 0.00 0.06 0.06 84 1024.8
20260901025552 61 127 0.9 2.6 0.00 0.06 0.06 84 1024.7
20260901025100 61 105 0.9 2.6 0.00 0.06 0.06 84 1024.7
20260901024553 62 113 0.9 2.6 0.00 0.06 0.06 84 1024.5
20260901024100 62 101 0.9 1.7 0.00 0.06 0.06 83 1024.5
20260901023553 62 101 0.9 3.5 0.00 0.06 0.06 83 1024.4
20260901023045 62 101 0.9 3.5 0.00 0.06 0.06 83 1024.3
20260901022551 62 109 0.9 5.2 0.00 0.06 0.06 82 1024.2
20260901022059 62 105 2.6 5.2 0.00 0.06 0.06 82 1024.1
20260901021503 62 87 1.7 4.3 0.00 0.06 0.06 82 1024.1
20260901021057 62 84 1.7 3.5 0.00 0.06 0.06 82 1024.3
20260901020605 62 44 1.7 3.5 0.00 0.06 0.06 82 1024.2
20260901020042 63 82 1.7 3.5 0.00 0.06 0.06 82 1024.1
20260901015551 63 65 1.7 3.5 0.00 0.06 0.06 82 1024.2
20260901015059 63 107 0.9 3.5 0.00 0.06 0.06 81 1024.3
20260901014558 63 80 1.7 3.5 0.00 0.06 0.06 81 1024.2
20260901014059 63 85 0.9 3.5 0.00 0.06 0.06 80 1024.4
20260901013551 63 114 0.9 4.3 0.00 0.06 0.06 80 1024.5
20260901013044 64 105 1.7 4.3 0.00 0.06 0.06 79 1024.3
20260901012552 64 77 0.9 6.1 0.00 0.06 0.06 79 1024.3
20260901012059 64 99 2.6 7.0 0.00 0.06 0.06 79 1024.4
20260901011503 64 130 3.5 7.0 0.00 0.06 0.06 78 1024.4
20260901011101 64 89 2.6 6.1 0.00 0.06 0.06 78 1024.4
20260901010503 65 80 1.7 5.2 0.00 0.06 0.06 77 1024.4
20260901010059 65 103 1.7 5.2 0.00 0.06 0.06 77 1024.5
20260901005504 65 102 2.6 4.3 0.00 0.09 0.06 76 1024.4
20260901005011 65 105 1.7 4.3 0.00 0.09 0.06 76 1024.3
20260901004603 65 78 1.7 4.3 0.00 0.09 0.06 76 1024.2
20260901004007 65 72 0.9 2.6 0.00 0.09 0.06 77 1024.5
20260901003604 65 111 1.7 2.6 0.00 0.09 0.06 75 1024.6
20260901003008 65 111 0.9 2.6 0.00 0.09 0.06 75 1024.7
20260901002603 65 93 0.9 3.5 0.00 0.09 0.06 76 1024.7
20260901002053 65 64 1.7 3.5 0.00 0.09 0.06 76 1024.6
20260901001609 65 84 1.7 4.3 0.00 0.09 0.06 75 1024.6
20260901001053 66 89 0.9 4.3 0.00 0.09 0.06 76 1024.8
20260901000601 66 88 2.6 4.3 0.00 0.09 0.06 76 1025.0
20260831235547 66 101 1.7 3.5 0.00 0.32 0.06 77 1025.2
20260831235052 66 50 0.0 1.7 0.00 0.32 0.06 70 1025.2
20260831234626 66 50 0.9 4.3 0.00 0.32 0.06 71 1025.2
20260831234004 66 34 0.9 4.3 0.00 0.32 0.06 72 1025.2
20260831233602 67 22 1.7 4.3 0.00 0.32 0.06 72 1025.1
20260831233004 67 38 0.0 4.3 0.00 0.32 0.06 72 1025.2
20260831232601 67 38 1.7 4.3 0.00 0.32 0.06 72 1025.2
20260831232004 67 86 0.9 5.2 0.00 0.32 0.06 70 1025.2
20260831231512 67 117 1.7 7.0 0.00 0.32 0.06 71 1025.2
20260831231105 66 138 1.7 7.0 0.00 0.32 0.06 74 1025.1
20260831230509 66 46 1.7 5.2 0.00 0.32 0.06 74 1025.1
20260831230104 66 92 2.6 5.2 0.00 0.32 0.06 74 1025.1
20260831225554 66 78 3.5 5.2 0.00 0.32 0.06 74 1025.2
20260831225103 66 80 1.7 4.3 0.00 0.32 0.06 74 1025.1
20260831224554 66 136 2.6 5.2 0.00 0.32 0.06 76 1025.3
20260831224105 66 123 1.7 3.5 0.00 0.32 0.06 76 1025.4
20260831223555 66 86 1.7 5.2 0.00 0.32 0.06 74 1025.4
20260831223045 66 76 1.7 5.2 0.00 0.32 0.06 74 1025.4
20260831222553 66 90 0.9 4.3 0.00 0.32 0.06 75 1025.4
20260831222100 66 74 0.9 5.2 0.00 0.32 0.06 74 1025.4
20260831221504 66 105 2.6 5.2 0.00 0.32 0.06 75 1025.5
20260831221058 66 70 0.9 2.6 0.00 0.32 0.06 75 1025.5
20260831220605 66 62 0.0 1.7 0.00 0.32 0.06 74 1025.7
20260831220042 65 62 0.0 1.7 0.00 0.32 0.06 75 1025.7
20260831215558 65 355 0.0 3.5 0.00 0.32 0.06 77 1025.8
20260831215015 65 347 0.9 4.3 0.00 0.32 0.06 76 1025.8
20260831214530 65 336 1.7 4.3 0.00 0.32 0.06 77 1025.8
20260831214047 65 346 2.6 4.3 0.00 0.32 0.06 76 1025.8
20260831213506 65 317 2.6 7.0 0.00 0.32 0.06 77 1026.0
20260831213022 65 19 1.7 7.0 0.00 0.32 0.06 77 1025.8
20260831212541 65 355 1.7 5.2 0.00 0.32 0.06 77 1025.7
20260831212054 65 17 2.6 5.2 0.00 0.32 0.06 78 1025.8
20260831211517 65 34 1.7 4.3 0.00 0.32 0.06 78 1025.7
20260831211036 65 30 1.7 4.3 0.00 0.32 0.06 77 1025.8
20260831210546 65 75 0.0 2.6 0.00 0.32 0.06 76 1025.9
20260831210056 65 67 0.9 2.6 0.00 0.32 0.06 75 1026.0
20260831205513 65 9 0.9 2.6 0.00 0.32 0.06 76 1026.1
20260831205028 65 63 0.9 2.6 0.00 0.32 0.06 77 1026.3
20260831204509 65 106 0.9 1.7 0.00 0.32 0.06 76 1026.4
20260831204026 65 114 0.0 1.7 0.00 0.32 0.06 77 1026.5
20260831203541 65 145 0.0 3.5 0.00 0.32 0.06 76 1026.4
20260831203110 65 53 1.7 3.5 0.00 0.32 0.06 77 1026.4
20260831202513 65 115 0.9 2.6 0.00 0.32 0.06 76 1026.4
20260831202030 64 323 1.7 3.5 0.00 0.32 0.06 78 1026.4
20260831201547 64 64 0.9 3.5 0.00 0.32 0.06 78 1026.3
20260831201056 64 126 1.7 6.1 0.00 0.32 0.06 80 1026.5
20260831200545 64 30 2.6 6.1 0.00 0.32 0.06 81 1026.4
20260831200052 63 80 1.7 7.8 0.00 0.32 0.06 83 1026.2
20260831195604 63 32 4.3 9.6 0.00 0.32 0.06 82 1026.0
20260831195004 63 24 4.3 8.7 0.00 0.32 0.06 83 1026.0
20260831194604 63 13 4.3 8.7 0.00 0.32 0.06 83 1026.2
20260831194002 63 346 4.3 10.4 0.00 0.32 0.06 84 1026.3
20260831193600 63 360 4.3 10.4 0.00 0.32 0.06 85 1026.5
20260831193004 63 333 6.1 10.4 0.00 0.32 0.06 84 1026.5
20260831192601 62 320 6.1 12.2 0.00 0.32 0.06 84 1026.7
20260831192004 62 341 7.0 12.2 0.02 0.32 0.06 86 1026.8
20260831191511 62 328 6.1 10.4 0.03 0.32 0.06 87 1026.9
20260831191107 62 295 7.8 10.4 0.03 0.32 0.06 87 1026.9
20260831190508 62 317 7.0 9.6 0.04 0.32 0.06 88 1027.2
20260831190104 62 265 4.3 8.7 0.04 0.32 0.06 89 1027.2
20260831185553 62 302 5.2 8.7 0.04 0.32 0.06 89 1027.2
20260831185101 62 267 2.6 7.8 0.04 0.32 0.06 88 1027.2
20260831184552 62 271 1.7 7.8 0.04 0.32 0.06 88 1027.2
20260831184044 61 272 2.6 7.8 0.04 0.32 0.06 88 1027.2
20260831183549 62 273 4.3 11.3 0.04 0.32 0.06 89 1027.0
20260831183100 62 299 5.2 11.3 0.04 0.32 0.06 88 1027.0
20260831182606 62 276 6.1 12.2 0.04 0.32 0.06 87 1026.9
20260831182056 62 306 8.7 11.3 0.04 0.31 0.05 84 1026.5
20260831181605 63 283 4.3 7.0 0.02 0.28 0.03 82 1027.6
20260831181055 63 254 1.7 5.2 0.02 0.28 0.03 82 1028.0
20260831180605 64 206 0.9 5.2 0.02 0.28 0.03 80 1028.0
20260831180044 64 227 0.9 3.5 0.01 0.28 0.02 80 1028.0
20260831175534 64 205 1.7 3.5 0.01 0.28 0.02 80 1027.9
20260831175042 64 230 0.9 4.3 0.01 0.28 0.02 80 1027.9
20260831174549 64 228 0.9 6.1 0.01 0.28 0.02 79 1027.8
20260831174057 64 226 1.7 6.1 0.01 0.28 0.02 76 1027.8
20260831173550 64 242 0.9 7.0 0.01 0.28 0.02 77 1027.7
20260831173059 65 254 2.6 7.0 0.01 0.28 0.02 74 1027.7
20260831172550 66 263 1.7 4.3 0.01 0.28 0.02 74 1027.6
20260831172058 66 273 1.7 6.1 0.00 0.27 0.01 72 1027.5
20260831171501 67 294 2.6 5.2 0.00 0.27 0.01 69 1027.4
20260831171056 67 305 1.7 5.2 0.00 0.27 0.01 66 1027.4
20260831170604 67 315 3.5 7.8 0.00 0.27 0.01 66 1027.3
20260831170058 67 327 4.3 7.8 0.00 0.27 0.01 66 1027.3
20260831165545 67 351 2.6 7.0 0.00 0.27 0.01 67 1027.2
20260831165055 67 324 3.5 7.0 0.00 0.27 0.01 66 1027.1
20260831164546 66 306 3.5 7.8 0.00 0.27 0.01 66 1027.0
20260831164054 66 319 3.5 7.8 0.00 0.27 0.01 67 1027.0
20260831163603 66 319 4.3 8.7 0.00 0.27 0.01 66 1026.9
20260831163005 66 318 5.2 8.7 0.00 0.27 0.01 67 1026.9
20260831162601 66 295 5.2 8.7 0.00 0.27 0.01 66 1026.8
20260831162003 66 328 5.2 8.7 0.00 0.27 0.01 67 1026.7
20260831161608 65 313 4.3 10.4 0.00 0.27 0.01 68 1026.6
20260831161050 65 317 7.0 10.4 0.00 0.27 0.01 68 1026.4
20260831160558 65 317 5.2 10.4 0.00 0.27 0.01 69 1026.3
20260831160056 65 329 5.2 11.3 0.00 0.27 0.01 69 1026.3
20260831155559 65 338 6.1 8.7 0.00 0.27 0.01 70 1026.2
20260831155052 64 303 4.3 9.6 0.00 0.27 0.01 71 1026.2
20260831154553 64 319 6.1 9.6 0.00 0.27 0.01 71 1026.2
20260831154052 64 321 5.2 9.6 0.00 0.27 0.01 72 1026.2
20260831153603 64 322 5.2 9.6 0.00 0.27 0.01 72 1026.3
20260831153004 64 338 3.5 8.7 0.00 0.27 0.01 73 1026.3
20260831152601 64 309 5.2 8.7 0.00 0.27 0.01 73 1026.4
20260831152003 64 341 4.3 7.0 0.00 0.27 0.01 73 1026.5
20260831151608 64 315 4.3 7.0 0.00 0.27 0.01 74 1026.5
20260831151053 63 310 2.6 8.7 0.00 0.27 0.01 75 1026.6
20260831150559 63 304 4.3 9.6 0.00 0.27 0.01 75 1026.6
20260831150055 63 297 4.3 10.4 0.00 0.27 0.01 75 1026.6
20260831145559 63 263 6.1 11.3 0.00 0.27 0.01 75 1026.5
20260831145002 64 284 7.0 11.3 0.00 0.27 0.01 73 1026.4
20260831144511 65 294 3.5 8.7 0.00 0.27 0.01 71 1026.5
20260831144017 65 304 2.6 6.1 0.00 0.27 0.01 71 1026.5
20260831143526 64 261 2.6 5.2 0.00 0.27 0.01 72 1026.4
20260831143032 64 265 0.9 2.6 0.00 0.27 0.01 71 1026.2
20260831142541 64 120 0.0 6.1 0.00 0.27 0.01 71 1026.0
20260831142049 64 83 1.7 7.0 0.00 0.27 0.01 72 1025.7
20260831141603 63 80 3.5 7.0 0.00 0.27 0.01 72 1025.5
20260831141107 63 115 2.6 7.8 0.00 0.27 0.01 72 1025.6
20260831140506 63 98 2.6 8.7 0.00 0.27 0.01 74 1025.4
20260831140010 62 118 4.3 8.7 0.00 0.27 0.01 73 1025.3
20260831135605 62 76 6.1 9.6 0.00 0.27 0.01 74 1025.2
20260831135054 62 78 5.2 9.6 0.00 0.27 0.01 74 1025.2
20260831134603 62 107 5.2 10.4 0.00 0.27 0.01 74 1025.1
20260831134053 62 69 5.2 10.4 0.00 0.27 0.01 75 1024.8
20260831133602 61 138 3.5 9.6 0.00 0.27 0.01 75 1024.9
20260831133004 61 69 4.3 8.7 0.00 0.27 0.01 76 1024.7
20260831132559 61 107 4.3 8.7 0.00 0.27 0.01 76 1024.7
20260831132002 60 93 4.3 9.6 0.00 0.27 0.01 77 1024.6
20260831131617 60 109 4.3 9.6 0.00 0.27 0.01 77 1024.6
20260831131003 60 88 2.6 6.1 0.00 0.27 0.01 78 1024.5
20260831130601 60 89 1.7 5.2 0.00 0.27 0.01 78 1024.6
20260831130053 60 117 2.6 7.0 0.00 0.27 0.01 78 1024.5
20260831125558 60 94 1.7 7.0 0.00 0.27 0.01 77 1024.4
20260831125050 60 76 3.5 7.0 0.00 0.27 0.01 77 1024.3
20260831124539 60 73 2.6 7.0 0.00 0.27 0.01 77 1024.2
20260831124048 60 107 2.6 11.3 0.00 0.27 0.01 77 1024.2
20260831123556 61 84 4.3 11.3 0.00 0.27 0.01 77 1024.2
20260831123100 61 126 6.1 10.4 0.00 0.27 0.01 76 1024.1
20260831122552 61 99 5.2 9.6 0.00 0.27 0.01 76 1024.2
20260831122100 61 130 5.2 8.7 0.00 0.27 0.01 75 1024.4
20260831121602 61 147 2.6 5.2 0.00 0.27 0.01 74 1024.4
20260831121044 61 71 0.9 7.8 0.00 0.27 0.01 74 1024.5
20260831120551 62 36 2.6 8.7 0.00 0.27 0.01 73 1024.5
20260831120100 62 51 2.6 10.4 0.00 0.27 0.01 73 1024.5
20260831115502 62 53 4.3 10.4 0.00 0.27 0.01 73 1024.2
20260831115057 62 65 5.2 10.4 0.00 0.27 0.01 72 1024.2
20260831114605 62 50 4.3 8.7 0.00 0.27 0.01 73 1024.0
20260831114058 62 108 4.3 8.7 0.00 0.27 0.01 72 1024.0
20260831113501 62 82 3.5 7.8 0.00 0.27 0.01 72 1023.9
20260831113059 62 59 3.5 7.0 0.00 0.27 0.01 71 1023.9
20260831112555 62 64 3.5 9.6 0.00 0.27 0.01 71 1023.9
20260831112040 62 82 4.3 13.0 0.00 0.27 0.01 71 1023.8
20260831111555 62 63 7.0 17.4 0.00 0.27 0.01 70 1023.6
20260831111043 62 57 10.4 19.1 0.00 0.27 0.01 70 1023.5
20260831110549 62 61 11.3 19.1 0.00 0.27 0.01 70 1023.3
20260831105501 62 46 11.3 16.5 0.00 0.27 0.01 71 1023.7
20260831105058 62 53 10.4 15.6 0.00 0.27 0.01 71 1023.8
20260831104604 62 46 9.6 17.4 0.00 0.27 0.01 71 1023.9
20260831104056 62 41 10.4 17.4 0.00 0.27 0.01 71 1023.9
20260831103600 62 56 8.7 13.0 0.00 0.27 0.01 75 1024.5
20260831103004 62 54 6.1 8.7 0.00 0.27 0.01 76 1024.8
20260831102559 62 80 4.3 8.7 0.00 0.27 0.01 76 1025.0
20260831102003 62 45 2.6 5.2 0.00 0.27 0.01 77 1025.1
20260831101602 62 37 2.6 4.3 0.00 0.27 0.01 78 1025.1
20260831101002 62 31 2.6 4.3 0.00 0.27 0.01 79 1025.2
20260831100508 63 9 0.9 1.7 0.00 0.27 0.01 78 1025.4
20260831100037 63 9 0.0 1.7 0.00 0.27 0.01 78 1025.4
20260831095546 63 84 0.9 2.6 0.00 0.27 0.01 77 1025.4
20260831095056 63 145 0.9 2.6 0.00 0.27 0.01 76 1025.5
20260831094601 64 150 1.7 2.6 0.00 0.27 0.01 73 1025.4
20260831094001 64 164 0.0 4.3 0.00 0.27 0.01 72 1025.5
20260831093558 64 164 1.7 4.3 0.00 0.27 0.01 70 1025.5
20260831093105 64 128 0.9 4.3 0.00 0.27 0.01 67 1025.5
20260831092601 64 69 0.9 4.3 0.01 0.27 0.01 66 1025.4
20260831092106 64 41 1.7 4.3 0.01 0.27 0.01 68 1025.5
20260831091512 64 59 1.7 7.0 0.01 0.27 0.01 67 1025.4
20260831091016 63 58 3.5 5.2 0.01 0.27 0.01 67 1025.4
20260831090524 63 44 2.6 7.8 0.01 0.27 0.01 68 1025.5
20260831090032 63 55 3.5 7.8 0.01 0.27 0.01 70 1025.5
20260831085543 62 40 4.3 7.8 0.01 0.27 0.01 72 1025.4
20260831085031 62 63 3.5 7.8 0.01 0.27 0.01 73 1025.5
20260831084539 62 61 2.6 7.8 0.01 0.27 0.01 75 1025.5
20260831084048 62 36 4.3 9.6 0.01 0.27 0.01 77 1025.4
20260831083556 62 17 5.2 10.4 0.01 0.27 0.01 78 1025.4